Temperature
12 12 12 13 13 13 13 13 14 14 14 14 14 14 14 14 14 15 15 15 15 15 15 15 15 15 15 15 15 15 15 15 15 15 15 15 15 15 15 15 15 15 15
12 12 12 12 13 13 13 13 13 13 14 14 14 14 14 14 14 14 14 14 14 15 15 15 15 15 15 15 15 15 15 15 15 15 15 15 15 15 15 15 15 15 15
12 12 12 12 12 12 13 13 13 13 13 14 14 14 14 14 14 14 14 14 14 14 14 15 15 15 15 14 14 15 15 15 15 15 15 15 15 15 15 15 15 15 15
11 12 12 12 12 12 12 13 13 13 13 13 13 14 14 14 14 14 14 14 14 14 14 14 14 14 14 14 14 14 14 14 14 14 14 14 14 14 14 14 14 14 15
11 12 12 12 12 12 12 12 13 13 13 13 13 13 13 13 13 14 14 14 14 14 14 14 14 14 14 14 14 14 14 14 14 14 14 14 14 14 14 14 14 14 14
11 11 11 11 12 12 12 12 12 12 13 13 13 13 13 13 13 13 13 13 13 13 14 14 13 14 14 14 14 14 14 14 14 14 14 14 14 14 14 14 14 14 14
11 11 11 11 11 11 12 12 12 12 12 12 12 13 13 13 13 13 13 13 13 13 13 13 13 13 13 13 13 13 13 13 14 14 14 14 14 14 14 14 14 14 14
10 11 11 11 11 11 11 11 11 12 12 12 12 12 12 12 12 12 13 13 13 13 13 13 13 13 13 13 13 13 13 13 13 13 14 14 14 14 14 14 14 14 14
10 10 10 10 11 11 11 11 11 11 11 11 12 12 12 12 12 12 12 12 12 12 12 12 12 13 13 13 13 13 13 13 13 13 13 13 13 13 13 13 13 13 13
9 10 10 10 10 10 10 10 10 11 11 11 11 11 11 11 11 12 12 12 12 12 12 12 12 12 12 12 12 12 12 12 13 13 13 13 13 13 13 13 13 13 13
9 9 9 9 9 10 10 10 10 10 10 10 11 11 11 11 11 11 11 11 11 11 11 11 11 12 12 12 12 12 12 12 12 12 12 12 12 13 13 13 13 13 13
8 8 8 9 9 9 9 9 9 9 10 10 10 10 10 10 10 10 11 11 11 11 11 11 11 11 11 12 12 12 12 12 12 12 12 12 12 12 12 12 12 12 12
7 8 8 8 8 8 8 9 9 9 9 9 9 9 10 10 10 10 10 10 10 11 10 10 10 11 11 11 11 11 11 11 11 12 12 12 12 12 12 12 12 12 12
7 7 7 7 7 8 8 8 8 8 8 9 9 9 9 9 9 9 10 10 10 10 10 10 10 10 10 10 11 11 11 11 11 11 11 11 11 11 12 12 12 12 12
6 6 6 7 7 7 7 7 7 7 8 8 8 8 8 8 9 9 9 9 9 9 9 9 10 10 10 10 10 10 10 10 10 10 11 11 11 11 11 11 11 11 11
5 6 6 6 6 6 7 7 7 7 7 7 7 7 7 8 8 8 8 8 9 9 9 9 9 9 9 9 9 10 10 10 10 10 10 10 10 10 11 11 11 11 11
5 5 5 5 5 6 6 6 6 6 6 6 7 7 7 7 7 7 7 8 8 8 8 8 8 8 9 9 9 9 9 9 9 9 9 10 10 10 10 10 10 11 11
4 4 5 5 5 5 5 5 5 5 6 6 6 6 6 6 6 7 7 7 7 7 7 8 8 8 8 8 8 8 8 9 9 9 9 9 9 9 10 10 10 10 10
4 4 4 4 4 5 5 4 5 5 5 5 5 5 5 5 6 6 6 6 6 6 7 7 7 7 7 7 7 8 8 8 8 9 9 9 9 9 9 9 10 10 10
3 3 3 4 4 4 4 4 4 4 4 4 4 4 4 5 5 5 5 5 5 6 6 6 6 6 6 6 7 7 7 7 8 8 8 8 9 9 9 9 9 9 9
2 3 3 3 3 3 3 3 4 4 4 4 4 4 4 4 4 4 4 4 5 5 5 5 5 5 5 6 6 6 7 7 7 7 8 8 8 8 8 8 9 9 9
2 2 2 2 2 2 2 2 2 3 3 3 3 3 3 3 3 3 3 4 4 4 4 4 4 4 4 4 4 4 5 5 6 6 7 7 7 7 7 8 8 8 8
1 1 1 1 1 1 2 2 2 2 2 2 2 2 2 2 2 2 2 3 3 3 3 3 4 4 4 4 4 3 4 4 4 5 6 6 6 6 7 7 7 7 7
1 1 1 1 1 1 1 1 1 1 1 1 1 1 1 1 1 1 2 2 2 2 2 2 3 3 3 3 3 3 3 3 3 3 4 5 5 6 6 6 6 7 7
0 0 0 0 0 0 0 0 0 0 0 0 0 0 1 1 1 1 1 1 1 1 1 1 2 2 2 2 2 2 3 3 3 3 3 4 4 5 5 5 6 6 6
-0 -0 -0 -1 -0 -0 -1 -1 -1 -1 -1 -0 -0 -0 -0 -0 -0 -0 -0 -0 0 0 0 1 1 1 1 1 2 2 2 2 2 2 2 3 3 4 4 5 5 5 5
Wind_Speed
6 11 9 9 9 9 9 10 11 11 11 11 10 10 10 10 10 10 10 10 11 11 11 11 12 12 12 13 13 13 14 14 13 13 13 13 13 13 14 14 14 14 16
7 9 7 8 9 10 9 9 10 11 11 11 10 10 10 9 9 10 10 10 10 11 11 11 11 12 13 13 13 13 13 13 12 12 12 12 12 12 13 13 13 13 15
9 9 7 7 9 10 11 10 10 11 11 11 11 10 10 9 9 10 10 11 11 11 11 11 11 11 12 12 12 12 12 11 11 11 11 10 10 11 11 12 12 13 14
9 9 7 8 9 10 11 11 11 11 11 11 11 10 10 9 9 9 10 10 11 11 11 11 11 11 11 11 11 11 11 10 10 10 9 8 8 9 10 10 11 11 12
9 10 9 8 9 10 10 10 11 11 12 12 12 12 11 9 9 10 10 10 11 11 11 11 11 11 10 10 10 10 10 10 10 9 8 7 7 8 8 9 9 10 11
9 10 10 11 10 10 10 10 11 11 12 12 12 12 12 11 10 10 10 10 10 10 10 10 10 10 10 9 9 9 9 9 9 9 7 6 6 7 7 8 8 10 10
9 11 11 12 12 12 11 11 11 11 11 12 12 12 12 12 10 9 9 10 10 10 10 9 9 9 9 9 9 9 9 9 8 7 6 5 5 6 6 7 8 9 9
9 12 12 13 13 12 13 11 11 11 11 12 12 11 12 12 11 10 10 9 9 9 9 9 9 9 8 8 8 8 8 7 6 6 5 4 4 4 5 5 6 8 8
11 12 13 13 13 13 12 13 12 11 11 11 12 12 12 12 11 10 10 10 9 8 8 8 8 8 8 8 8 8 7 6 6 5 4 3 3 3 3 4 5 7 8
11 12 13 13 13 13 12 12 13 12 11 12 12 12 12 11 11 10 10 9 9 8 8 8 8 8 8 8 8 8 7 6 5 4 4 2 2 2 2 3 5 6 7
10 10 12 13 13 13 11 12 12 12 12 12 12 12 12 11 10 9 10 9 8 8 7 7 7 8 8 7 8 8 7 5 4 3 3 2 2 1 1 2 4 5 6
8 8 10 11 12 12 11 11 11 11 12 11 11 11 10 10 9 8 9 8 8 7 7 7 7 7 7 7 6 7 6 5 4 3 3 2 2 1 1 2 3 5 6
5 7 8 10 11 11 10 10 10 10 11 11 11 11 10 9 9 8 8 8 7 7 7 7 7 6 6 5 5 5 5 5 4 4 3 3 2 2 1 1 2 4 5
6 6 7 9 10 10 10 9 9 9 9 10 10 10 9 7 7 7 7 7 7 6 6 5 5 5 5 5 4 4 4 4 4 4 3 3 3 2 1 1 2 2 4
6 7 6 8 9 9 9 8 8 8 8 9 9 9 8 6 6 6 5 6 7 6 6 5 4 4 4 4 4 3 3 4 4 4 4 4 3 3 2 1 1 2 3
6 7 6 7 8 9 8 7 7 7 8 8 9 9 8 6 6 5 5 5 6 6 5 4 3 2 3 3 3 3 3 3 3 3 3 4 3 3 2 2 2 2 3
5 6 5 6 8 8 8 7 7 7 7 7 8 9 8 7 6 6 5 4 5 6 6 4 3 3 2 2 2 3 3 2 2 3 3 3 3 3 3 2 2 2 2
4 6 6 6 7 8 8 8 7 7 7 7 8 9 8 8 7 6 4 4 6 6 5 3 2 1 1 1 2 2 2 2 2 2 2 2 2 3 3 3 3 3 3
4 5 7 6 6 7 8 8 7 7 8 8 8 9 9 8 8 6 5 5 6 5 4 4 2 1 1 2 2 2 1 2 2 1 1 1 1 2 2 3 3 4 4
4 5 6 6 7 6 6 6 6 6 7 8 8 9 9 8 8 7 5 6 5 4 3 3 3 2 1 1 2 2 2 2 1 1 1 1 1 2 2 3 3 4 4
5 5 6 6 6 6 4 4 4 4 5 6 8 10 10 9 9 7 6 5 5 3 3 3 2 2 2 2 1 2 2 2 2 1 1 1 1 2 2 2 3 3 4
4 4 5 6 5 5 4 3 2 3 3 4 7 9 10 10 9 7 7 5 5 3 3 3 2 1 1 1 0 1 1 2 2 2 1 1 1 1 2 3 3 3 3
3 3 4 5 5 5 6 4 3 3 3 4 6 6 10 10 9 9 8 6 5 3 3 3 2 1 2 2 1 0 1 2 2 2 1 1 1 1 2 2 3 4 4
2 2 3 4 4 4 5 4 4 3 3 4 5 5 8 10 9 9 9 7 6 4 3 4 3 2 2 2 2 2 2 1 2 2 2 1 2 2 2 3 3 4 4
2 2 2 3 4 4 4 4 3 3 3 4 5 6 7 8 8 9 8 8 6 5 5 4 4 3 3 3 2 2 2 2 2 3 4 3 2 2 3 3 3 3 4
2 2 2 3 4 3 4 4 3 4 5 5 6 6 6 5 6 8 8 8 7 6 6 6 5 4 4 4 4 3 3 2 2 3 4 4 4 3 4 3 3 3 4
Wind_Direction
331 333 342 3 17 26 33 39 41 42 47 51 53 56 60 64 66 65 65 68 68 68 68 68 69 70 71 73 72 72 72 72 72 72 73 76 80 86 89 88 87 89 92
328 334 350 9 24 31 36 41 42 42 46 47 49 51 55 62 66 66 66 67 67 67 68 69 69 70 70 72 73 73 73 71 69 69 68 69 74 82 89 90 92 96 96
353 351 357 19 32 34 37 41 43 42 44 47 48 48 50 56 62 66 66 66 66 65 65 66 68 69 71 70 72 72 72 70 68 67 65 63 70 80 91 92 94 98 99
3 3 2 30 37 38 39 41 42 42 44 45 47 48 47 49 56 62 64 64 64 63 64 66 68 69 70 69 70 69 69 69 67 66 63 62 69 81 92 97 99 102 103
13 15 16 33 40 41 41 41 42 40 42 43 46 46 45 47 51 57 59 62 64 64 63 64 66 66 66 67 67 66 66 66 65 64 63 65 71 85 94 100 103 105 108
19 22 24 33 36 40 42 41 41 40 41 41 43 43 42 44 47 50 56 64 63 65 64 63 66 64 61 63 65 63 62 64 63 59 57 64 71 87 96 102 106 110 112
21 23 30 35 35 36 38 40 41 42 41 41 41 42 42 41 42 46 53 62 63 64 65 63 63 61 59 58 61 63 60 59 63 56 49 58 75 86 93 100 110 113 116
27 25 29 31 32 34 36 34 39 41 42 41 40 40 40 40 40 45 49 55 60 61 62 64 63 59 56 57 57 60 57 54 53 48 41 49 73 87 98 102 116 121 123
32 31 29 27 27 28 30 33 34 38 40 39 37 37 38 37 39 42 42 43 51 55 56 59 59 59 56 56 55 54 52 54 56 47 35 35 65 91 109 117 127 127 128
35 31 28 27 26 25 26 28 32 33 37 36 34 35 36 34 34 37 35 35 39 46 49 52 55 55 54 54 51 46 43 56 52 40 30 26 49 84 124 134 137 137 135
30 25 25 25 24 23 26 26 28 30 31 33 30 30 32 31 30 32 28 30 32 37 41 46 50 53 49 47 44 43 43 47 43 32 18 18 34 62 124 144 146 142 141
21 17 21 23 22 23 26 26 26 27 27 29 29 27 28 27 28 29 28 29 28 29 33 36 42 49 45 38 34 38 37 32 30 19 10 7 27 51 90 124 150 149 144
17 18 16 20 22 25 24 26 25 24 24 23 24 25 25 28 28 26 27 23 22 23 24 29 32 35 38 32 27 26 29 28 20 9 5 6 11 29 68 144 142 156 160
19 18 14 19 23 24 26 27 27 24 22 19 15 22 27 24 23 20 22 16 18 17 15 23 25 22 26 27 26 23 23 22 12 6 4 7 4 5 1 151 168 160 168
20 9 11 18 22 21 26 26 24 21 20 14 15 17 22 22 15 13 13 15 12 12 10 8 15 18 17 15 14 21 15 11 5 5 360 359 353 347 331 311 231 202 185
13 2 6 17 19 22 27 23 20 17 16 15 15 12 15 19 16 11 9 8 5 2 357 355 354 10 15 13 6 3 1 358 354 349 351 351 348 343 337 318 288 252 222
9 3 6 19 19 20 21 19 18 15 18 14 9 7 11 13 12 13 8 3 355 353 354 354 3 19 24 15 359 353 345 341 329 329 336 343 347 355 353 332 307 279 261
16 12 6 17 18 17 17 13 13 14 17 12 7 4 7 8 8 11 7 358 350 353 359 356 4 6 351 349 331 324 335 327 315 310 327 342 350 346 341 330 322 304 288
22 19 11 11 16 13 13 11 9 14 15 11 9 6 4 3 6 5 358 352 353 358 359 354 342 341 323 333 315 307 311 303 294 305 336 330 323 315 307 309 312 305 294
21 20 15 13 14 11 12 12 11 13 11 8 6 4 3 2 3 5 357 355 358 360 351 351 341 343 317 321 319 321 307 293 293 279 281 292 293 296 295 293 293 296 290
21 18 17 11 9 11 10 5 358 354 352 0 3 2 3 1 358 1 358 355 359 351 340 340 343 351 354 0 12 339 322 296 283 284 310 288 316 314 309 297 280 276 278
13 7 13 8 4 8 2 351 335 323 336 351 357 1 3 360 354 352 357 352 350 348 345 342 349 338 315 338 356 327 310 315 321 302 293 277 316 345 336 315 314 292 280
2 357 358 358 357 3 3 3 2 5 356 358 357 356 354 354 354 349 346 348 344 344 318 318 315 300 273 265 276 213 215 247 306 295 281 278 303 316 314 319 309 299 286
314 340 353 353 354 3 11 13 15 13 356 336 330 334 342 347 349 349 346 345 342 335 319 307 322 293 272 265 271 269 267 239 248 284 288 300 308 294 286 296 291 294 293
321 340 338 345 351 5 12 11 8 359 340 328 332 337 342 346 346 345 342 342 341 334 321 312 307 296 277 264 255 262 269 279 253 249 272 291 301 287 285 275 278 276 275
339 355 351 350 347 359 6 3 359 348 341 340 340 337 337 334 337 341 336 337 333 329 321 312 302 290 280 273 264 253 245 244 245 242 258 277 284 292 294 275 268 268 260
Height
1540 1540 1540 1540 1540 1540 1540 1540 1540 1540 1539 1539 1540 1540 1539 1539 1539 1539 1539 1539 1539 1539 1539 1539 1539 1539 1540 1540 1540 1540 1540 1541 1541 1541 1541 1542 1542 1542 1543 1543 1544 1544 1545
1540 1540 1540 1540 1540 1540 1540 1540 1540 1540 1540 1540 1540 1540 1540 1540 1540 1540 1540 1540 1540 1540 1540 1540 1540 1540 1540 1541 1541 1541 1541 1542 1542 1542 1543 1543 1544 1544 1544 1545 1545 1546 1546
1540 1540 1540 1540 1540 1540 1540 1540 1540 1540 1540 1540 1540 1540 1540 1540 1540 1540 1540 1540 1540 1540 1540 1540 1540 1541 1541 1541 1542 1542 1542 1543 1543 1544 1544 1544 1545 1545 1546 1546 1547 1547 1548
1540 1540 1540 1540 1541 1541 1541 1540 1540 1541 1540 1540 1540 1540 1540 1540 1540 1540 1540 1540 1540 1540 1540 1541 1541 1541 1542 1542 1542 1543 1543 1544 1544 1544 1545 1545 1546 1546 1547 1547 1548 1548 1549
1540 1540 1540 1540 1540 1541 1541 1541 1541 1541 1541 1541 1540 1540 1540 1540 1540 1540 1540 1540 1540 1540 1541 1541 1541 1541 1542 1542 1543 1543 1543 1544 1545 1545 1545 1546 1547 1547 1548 1548 1549 1549 1550
1540 1540 1540 1540 1540 1540 1540 1540 1540 1541 1540 1540 1540 1540 1540 1540 1540 1540 1540 1540 1540 1540 1540 1541 1541 1541 1542 1542 1543 1543 1544 1544 1545 1545 1546 1546 1547 1548 1548 1548 1549 1550 1550
1539 1539 1540 1540 1540 1540 1540 1540 1540 1540 1540 1540 1540 1540 1540 1539 1540 1540 1540 1540 1540 1540 1540 1541 1541 1541 1542 1542 1542 1543 1543 1544 1545 1545 1546 1546 1547 1548 1548 1548 1549 1550 1551
1539 1539 1539 1539 1540 1540 1540 1540 1540 1540 1539 1539 1539 1539 1539 1539 1539 1539 1539 1539 1539 1539 1540 1540 1541 1541 1541 1542 1542 1543 1543 1544 1544 1545 1545 1546 1547 1547 1548 1548 1549 1550 1551
1539 1539 1539 1539 1539 1539 1539 1539 1539 1539 1539 1538 1538 1538 1538 1538 1538 1538 1538 1538 1539 1539 1539 1540 1540 1540 1541 1541 1542 1542 1543 1543 1544 1544 1545 1546 1546 1547 1548 1548 1549 1550 1550
1539 1539 1538 1538 1538 1538 1538 1538 1538 1538 1538 1538 1537 1537 1537 1537 1537 1537 1538 1537 1538 1538 1538 1539 1539 1539 1540 1540 1541 1541 1542 1542 1543 1544 1544 1545 1546 1546 1547 1548 1548 1549 1550
1538 1538 1538 1538 1538 1537 1537 1537 1537 1537 1537 1537 1536 1536 1536 1536 1536 1536 1537 1536 1536 1537 1537 1537 1538 1538 1539 1539 1540 1540 1541 1541 1542 1543 1543 1544 1545 1545 1546 1547 1548 1548 1549
1538 1538 1537 1537 1537 1537 1536 1536 1536 1536 1535 1535 1535 1535 1535 1535 1535 1535 1535 1535 1535 1535 1536 1536 1536 1537 1537 1538 1538 1539 1539 1540 1540 1541 1542 1543 1543 1544 1545 1545 1546 1547 1548
1538 1538 1537 1537 1536 1536 1535 1535 1535 1534 1534 1534 1534 1533 1533 1533 1533 1533 1533 1533 1533 1533 1534 1534 1535 1535 1536 1536 1537 1537 1538 1538 1539 1540 1540 1541 1542 1542 1543 1544 1545 1546 1547
1538 1537 1537 1537 1536 1535 1535 1534 1534 1533 1532 1532 1532 1532 1532 1531 1531 1531 1531 1531 1531 1531 1532 1532 1532 1533 1534 1534 1535 1535 1536 1537 1537 1538 1539 1539 1540 1541 1541 1542 1543 1544 1545
1537 1537 1536 1536 1535 1534 1534 1533 1532 1532 1531 1530 1530 1530 1530 1530 1529 1530 1529 1529 1529 1529 1530 1530 1530 1530 1531 1532 1533 1533 1534 1534 1535 1535 1536 1537 1538 1539 1539 1540 1541 1542 1543
1536 1536 1536 1535 1534 1534 1533 1532 1531 1531 1530 1529 1528 1528 1528 1528 1527 1527 1527 1527 1527 1527 1527 1528 1528 1528 1528 1529 1529 1530 1531 1532 1532 1533 1534 1534 1535 1536 1537 1537 1538 1540 1540
1536 1535 1535 1534 1533 1533 1532 1531 1530 1529 1529 1528 1527 1526 1526 1525 1525 1525 1525 1525 1525 1525 1525 1525 1525 1525 1525 1526 1526 1527 1528 1529 1529 1530 1531 1532 1532 1533 1534 1535 1536 1537 1538
1535 1534 1534 1533 1533 1532 1531 1530 1529 1528 1527 1526 1525 1524 1524 1523 1523 1522 1522 1522 1522 1522 1522 1521 1522 1522 1522 1522 1523 1524 1524 1525 1526 1527 1527 1528 1529 1530 1531 1532 1533 1534 1535
1534 1533 1533 1532 1531 1530 1530 1529 1528 1527 1525 1524 1523 1522 1521 1521 1520 1520 1519 1519 1519 1518 1518 1518 1518 1519 1519 1519 1519 1520 1521 1521 1522 1523 1524 1525 1526 1527 1528 1529 1529 1530 1531
1533 1533 1532 1531 1530 1529 1528 1527 1526 1525 1524 1522 1521 1520 1519 1518 1518 1517 1516 1516 1515 1515 1515 1515 1515 1516 1516 1516 1516 1516 1517 1517 1518 1519 1520 1521 1522 1523 1524 1525 1526 1527 1528
1532 1531 1530 1529 1528 1527 1526 1525 1523 1522 1521 1520 1519 1518 1517 1516 1515 1514 1514 1513 1513 1512 1512 1511 1511 1511 1512 1513 1513 1512 1512 1513 1514 1515 1515 1516 1517 1518 1520 1520 1522 1522 1523
1530 1529 1529 1527 1527 1525 1524 1523 1522 1520 1519 1518 1517 1516 1514 1513 1512 1511 1511 1510 1509 1509 1509 1509 1508 1508 1509 1510 1510 1509 1508 1510 1509 1510 1511 1512 1513 1514 1515 1516 1517 1518 1519
1528 1528 1527 1526 1525 1524 1523 1522 1520 1518 1517 1515 1514 1513 1511 1511 1509 1508 1508 1507 1506 1506 1505 1505 1505 1505 1505 1506 1507 1508 1507 1506 1505 1506 1507 1508 1509 1510 1511 1512 1513 1514 1514
1527 1527 1526 1525 1523 1522 1521 1519 1517 1515 1514 1513 1511 1510 1509 1507 1506 1505 1504 1504 1503 1503 1502 1502 1502 1502 1502 1502 1503 1504 1505 1504 1505 1502 1503 1504 1505 1506 1507 1508 1508 1509 1510
1526 1525 1524 1523 1522 1520 1518 1517 1515 1514 1512 1511 1509 1507 1506 1505 1504 1502 1501 1500 1499 1499 1499 1499 1498 1498 1498 1499 1499 1500 1501 1501 1501 1501 1498 1498 1500 1501 1502 1503 1504 1505 1506
1524 1524 1522 1521 1520 1518 1517 1515 1513 1511 1510 1508 1506 1504 1503 1501 1501 1499 1498 1497 1496 1495 1495 1494 1494 1494 1494 1494 1495 1495 1496 1496 1496 1497 1496 1494 1494 1495 1497 1498 1499 1500 1501